Voltar ao catálogo

SL-14 R/B

AtivoPO
NORAD 17192·ROCKET BODY·🇷🇺 Russia

Lançado Dec 10, 1986 de Plesetsk Cosmodrome

Loading…

Próximas Passagens (próximas 24 horas)

TLE

AtualizadoSource: Space-Track

Época: Sep 14, 2026, 15:03 UTC

1 17192U 86097B   26257.62729309  .00000298  00000-0  31217-4 0  9997
2 17192  82.5078 324.1190 0017532 117.4653  43.3649 14.86045706128402

Acompanhe SL-14 R/B em tempo real com AllMySat

Download on the App Store